When you browse on this site, cookies collect data to enhance your experience and personalize the content and advertising you see.
Visit our Privacy Policy to learn more. By continuing to use the site, you agree to this use of cookies and data.
  • In Hungary
  • List of Countries
  • For 7 days
  • Water Temperature
  • Satellite Maps
  • Weather Map
  • News
  • Weather Widgets
  • user-avatar
    Login

    Hourly Weather Zatoka

    Today, 25 May, Saturday

    Time Temperature Precipitation Wind Pressure Humidity
    00:00 +13°C° 0 mm 2 mps 742 mmHg 93%
    01:00 +12°C° 0 mm 2 mps 742 mmHg 93%
    02:00 +12°C° 0 mm 2 mps 742 mmHg 93%
    03:00 +10°C° 0 mm 2 mps 742 mmHg 94%
    04:00 +10°C° 0 mm 2 mps 742 mmHg 94%
    05:00 +12°C° 0 mm 2 mps 743 mmHg 90%
    06:00 +14°C° 0 mm 2 mps 743 mmHg 87%
    07:00 +15°C° 0 mm 2 mps 743 mmHg 83%
    08:00 +17°C° 0 mm 2 mps 743 mmHg 75%
    09:00 +18°C° 0 mm 3 mps 743 mmHg 68%
    10:00 +20°C° 0 mm 3 mps 743 mmHg 60%
    11:00 +20°C° 0 mm 3 mps 743 mmHg 58%
    12:00 +21°C° 0 mm 3 mps 742 mmHg 57%
    13:00 +22°C° 0 mm 3 mps 742 mmHg 55%
    14:00 +22°C° 0 mm 3 mps 742 mmHg 57%
    15:00 +22°C° 0 mm 3 mps 742 mmHg 58%
    16:00 +22°C° 0 mm 3 mps 742 mmHg 60%
    17:00 +20°C° 0.2 mm 2 mps 742 mmHg 67%
    18:00 +19°C° 0.2 mm 2 mps 742 mmHg 74%
    19:00 +17°C° 0.2 mm 2 mps 742 mmHg 81%
    20:00 +16°C° 0 mm 1 mps 742 mmHg 83%
    21:00 +15°C° 0 mm 1 mps 743 mmHg 86%
    22:00 +14°C° 0 mm 1 mps 743 mmHg 88%
    23:00 +14°C° 0 mm 1 mps 743 mmHg 89%

    Tomorrow, 26 May, Sunday

    Time Temperature Precipitation Wind Pressure Humidity
    00:00 +13°C° 0 mm 1 mps 743 mmHg 90%
    01:00 +13°C° 0 mm 1 mps 743 mmHg 91%
    02:00 +13°C° 0 mm 1 mps 743 mmHg 90%
    03:00 +13°C° 0 mm 1 mps 743 mmHg 90%
    04:00 +13°C° 0 mm 1 mps 743 mmHg 90%
    05:00 +14°C° 0 mm 1 mps 743 mmHg 86%
    06:00 +16°C° 0 mm 1 mps 743 mmHg 83%
    07:00 +18°C° 0 mm 1 mps 744 mmHg 79%
    08:00 +20°C° 0.1 mm 1 mps 743 mmHg 75%
    09:00 +20°C° 0.1 mm 2 mps 743 mmHg 71%
    10:00 +21°C° 0.1 mm 2 mps 743 mmHg 68%
    11:00 +21°C° 0.6 mm 2 mps 743 mmHg 69%
    12:00 +23°C° 0.6 mm 2 mps 743 mmHg 71%
    13:00 +23°C° 0.6 mm 2 mps 743 mmHg 73%
    14:00 +23°C° 1.2 mm 2 mps 743 mmHg 74%
    15:00 +21°C° 1.2 mm 2 mps 742 mmHg 75%
    16:00 +21°C° 1.2 mm 2 mps 742 mmHg 77%
    17:00 +20°C° 0.6 mm 2 mps 742 mmHg 79%
    18:00 +19°C° 0.6 mm 2 mps 742 mmHg 82%
    19:00 +19°C° 0.6 mm 1 mps 742 mmHg 85%
    20:00 +18°C° 0 mm 1 mps 743 mmHg 86%
    21:00 +16°C° 0 mm 1 mps 743 mmHg 88%
    22:00 +15°C° 0 mm 1 mps 743 mmHg 89%
    23:00 +15°C° 0 mm 2 mps 743 mmHg 90%

    Day after tomorrow, 27 May, Monday

    Time Temperature Precipitation Wind Pressure Humidity
    00:00 +15°C° 0 mm 2 mps 743 mmHg 91%
    01:00 +14°C° 0 mm 2 mps 743 mmHg 91%
    02:00 +14°C° 0 mm 2 mps 743 mmHg 91%
    03:00 +14°C° 0 mm 2 mps 742 mmHg 92%
    04:00 +14°C° 0 mm 2 mps 742 mmHg 92%
    05:00 +16°C° 0 mm 2 mps 742 mmHg 88%
    06:00 +17°C° 0 mm 2 mps 742 mmHg 84%
    07:00 +19°C° 0 mm 2 mps 742 mmHg 81%
    08:00 +21°C° 0.1 mm 2 mps 742 mmHg 75%
    09:00 +23°C° 0.1 mm 2 mps 742 mmHg 70%
    10:00 +25°C° 0.1 mm 2 mps 742 mmHg 64%
    11:00 +24°C° 0.4 mm 2 mps 742 mmHg 67%
    12:00 +24°C° 0.4 mm 3 mps 742 mmHg 69%
    13:00 +24°C° 0.4 mm 3 mps 742 mmHg 72%
    14:00 +24°C° 0.1 mm 2 mps 742 mmHg 71%
    15:00 +24°C° 0.1 mm 2 mps 742 mmHg 70%
    16:00 +24°C° 0.1 mm 1 mps 741 mmHg 69%
    17:00 +23°C° 0 mm 1 mps 741 mmHg 73%
    18:00 +22°C° 0 mm 1 mps 741 mmHg 77%
    19:00 +21°C° 0 mm 1 mps 741 mmHg 82%
    20:00 +20°C° 0.2 mm 1 mps 741 mmHg 84%
    21:00 +20°C° 0.2 mm 1 mps 741 mmHg 86%
    22:00 +19°C° 0.2 mm 1 mps 741 mmHg 88%
    23:00 +19°C° 0.2 mm 1 mps 740 mmHg 90%

    28 May, Tuesday

    Time Temperature Precipitation Wind Pressure Humidity
    00:00 +19°C° 0.2 mm 1 mps 740 mmHg 91%
    01:00 +18°C° 0.2 mm 1 mps 740 mmHg 93%
    02:00 +18°C° 1 mm 1 mps 740 mmHg 94%
    03:00 +18°C° 1 mm 1 mps 739 mmHg 95%
    04:00 +17°C° 1 mm 2 mps 739 mmHg 96%
    05:00 +18°C° 1.4 mm 2 mps 739 mmHg 95%
    06:00 +18°C° 1.4 mm 2 mps 739 mmHg 93%
    07:00 +19°C° 1.4 mm 2 mps 738 mmHg 92%
    08:00 +21°C° 0.1 mm 2 mps 738 mmHg 83%
    09:00 +23°C° 0.1 mm 2 mps 738 mmHg 75%
    10:00 +25°C° 0.1 mm 2 mps 738 mmHg 67%
    11:00 +26°C° 0.7 mm 1 mps 738 mmHg 65%
    12:00 +26°C° 0.7 mm 1 mps 737 mmHg 63%
    13:00 +27°C° 0.7 mm 1 mps 737 mmHg 61%
    14:00 +26°C° 2 mm 1 mps 737 mmHg 66%
    15:00 +25°C° 2 mm 1 mps 737 mmHg 71%
    16:00 +24°C° 2 mm 1 mps 737 mmHg 76%
    17:00 +23°C° 0.1 mm 1 mps 737 mmHg 79%
    18:00 +22°C° 0.1 mm 1 mps 736 mmHg 81%
    19:00 +19°C° 0.1 mm 0 mps 736 mmHg 84%
    20:00 +20°C° 1.3 mm 1 mps 737 mmHg 87%
    21:00 +19°C° 1.3 mm 1 mps 737 mmHg 89%
    22:00 +17°C° 1.3 mm 2 mps 737 mmHg 92%
    23:00 +17°C° 0.6 mm 2 mps 737 mmHg 93%

    29 May, Wednesday

    Time Temperature Precipitation Wind Pressure Humidity
    00:00 +16°C° 0.6 mm 2 mps 737 mmHg 94%
    01:00 +14°C° 0.6 mm 3 mps 737 mmHg 95%
    02:00 +14°C° 0 mm 3 mps 737 mmHg 95%
    03:00 +14°C° 0 mm 3 mps 738 mmHg 96%
    04:00 +13°C° 0 mm 3 mps 738 mmHg 96%
    05:00 +14°C° 0 mm 3 mps 738 mmHg 94%
    06:00 +16°C° 0 mm 3 mps 739 mmHg 91%
    07:00 +17°C° 0 mm 3 mps 739 mmHg 89%
    08:00 +18°C° 0.1 mm 3 mps 740 mmHg 89%
    09:00 +18°C° 0.1 mm 4 mps 740 mmHg 88%
    10:00 +18°C° 0.1 mm 4 mps 740 mmHg 88%
    11:00 +16°C° 0.1 mm 5 mps 741 mmHg 88%
    12:00 +15°C° 0.1 mm 5 mps 741 mmHg 88%
    13:00 +15°C° 0.1 mm 5 mps 742 mmHg 88%
    14:00 +14°C° 0.1 mm 5 mps 742 mmHg 89%
    15:00 +13°C° 0.1 mm 5 mps 742 mmHg 89%
    16:00 +12°C° 0.1 mm 5 mps 743 mmHg 89%
    17:00 +12°C° 0 mm 4 mps 743 mmHg 89%
    18:00 +12°C° 0 mm 3 mps 744 mmHg 89%
    19:00 +13°C° 0 mm 2 mps 744 mmHg 89%
    20:00 +12°C° 0 mm 2 mps 745 mmHg 89%
    21:00 +12°C° 0 mm 2 mps 746 mmHg 90%
    22:00 +12°C° 0 mm 2 mps 746 mmHg 90%
    23:00 +12°C° 0 mm 2 mps 746 mmHg 91%

    30 May, Thursday

    Time Temperature Precipitation Wind Pressure Humidity
    00:00 +10°C° 0 mm 2 mps 747 mmHg 92%
    01:00 +11°C° 0 mm 1 mps 747 mmHg 92%
    02:00 +11°C° 0.7 mm 1 mps 747 mmHg 93%
    03:00 +11°C° 0.7 mm 1 mps 748 mmHg 94%
    04:00 +11°C° 0.7 mm 1 mps 748 mmHg 95%
    05:00 +11°C° 0.8 mm 1 mps 748 mmHg 94%
    06:00 +11°C° 0.8 mm 1 mps 748 mmHg 93%
    07:00 +11°C° 0.8 mm 1 mps 749 mmHg 92%
    08:00 +12°C° 0 mm 1 mps 749 mmHg 87%
    09:00 +13°C° 0 mm 2 mps 749 mmHg 83%
    10:00 +13°C° 0 mm 2 mps 749 mmHg 78%
    11:00 +15°C° 0 mm 2 mps 749 mmHg 74%
    12:00 +16°C° 0 mm 2 mps 748 mmHg 70%
    13:00 +17°C° 0 mm 2 mps 748 mmHg 66%
    14:00 +17°C° 0 mm 2 mps 748 mmHg 67%
    15:00 +17°C° 0 mm 2 mps 747 mmHg 67%
    16:00 +17°C° 0 mm 2 mps 747 mmHg 67%
    17:00 +16°C° 0 mm 2 mps 747 mmHg 71%
    18:00 +15°C° 0 mm 1 mps 746 mmHg 75%
    19:00 +14°C° 0 mm 1 mps 746 mmHg 79%
    20:00 +14°C° 0 mm 1 mps 746 mmHg 79%
    21:00 +13°C° 0 mm 1 mps 746 mmHg 80%
    22:00 +12°C° 0 mm 1 mps 746 mmHg 80%
    23:00 +12°C° 0 mm 1 mps 746 mmHg 80%
    Show more